This is the latest recevied weather packets stored in our database for station/object KG5WBN. If no packets are shown the sender has not sent any weather packets the latest 10 day(s).
| Time | Temp. | Humidity | Pressure | Rain* | Wind** | Luminosity | Snow |
|---|---|---|---|---|---|---|---|
| 1777815125 | 20° C | 44% | 1021.3 hPa | 0 mm | - | 40 W/m² | - |
| 1777814821 | 19.44° C | 46% | 1021.3 hPa | 0 mm | - | 47 W/m² | - |
| 1777814517 | 18.89° C | 50% | 1021 hPa | 0 mm | - | 46 W/m² | - |
| 1777814215 | 18.33° C | 54% | 1021.3 hPa | 0 mm | - | 42 W/m² | - |
| 1777813912 | 17.78° C | 55% | 1021.3 hPa | 0 mm | - | 38 W/m² | - |
| 1777813609 | 17.22° C | 56% | 1021.3 hPa | 0 mm | - | 37 W/m² | - |
| 1777813307 | 16.67° C | 61% | 1021 hPa | 0 mm | - | 27 W/m² | - |
| 1777813004 | 16.67° C | 62% | 1021 hPa | 0 mm | - | 28 W/m² | - |
| 1777812702 | 16.11° C | 64% | 1021 hPa | 0 mm | - | 26 W/m² | - |
| 1777812398 | 15.56° C | 68% | 1020.7 hPa | 0 mm | - | 23 W/m² | - |
| 1777812097 | 15.56° C | 71% | 1020.7 hPa | 0 mm | - | 22 W/m² | - |
| 1777811794 | 15° C | 73% | 1020.7 hPa | 0 mm | - | 23 W/m² | - |
| 1777811491 | 14.44° C | 75% | 1020.7 hPa | 0 mm | - | 21 W/m² | - |
| 1777811187 | 13.89° C | 75% | 1020.7 hPa | 0 mm | - | 20 W/m² | - |
| 1777810885 | 13.89° C | 76% | 1020.7 hPa | 0 mm | - | 19 W/m² | - |
| 1777810581 | 13.33° C | 76% | 1020.7 hPa | 0 mm | - | 18 W/m² | - |
| 1777810278 | 13.33° C | 77% | 1020.3 hPa | 0 mm | - | 17 W/m² | - |
| 1777809974 | 12.78° C | 76% | 1020.3 hPa | 0 mm | - | 15 W/m² | - |
| 1777809672 | 12.78° C | 77% | 1020.3 hPa | 0 mm | - | 13 W/m² | - |
| 1777809369 | 12.78° C | 77% | 1020.3 hPa | 0 mm | - | 13 W/m² | - |
| 1777809067 | 12.78° C | 77% | 1020.3 hPa | 0 mm | - | 11 W/m² | - |
| 1777808764 | 12.22° C | 76% | 1020.3 hPa | 0 mm | - | 10 W/m² | - |
| 1777808460 | 12.22° C | 76% | 1019.6 hPa | 0 mm | - | 8 W/m² | - |
| 1777808159 | 12.22° C | 75% | 1020 hPa | 0 mm | - | 6 W/m² | - |
| 1777807857 | 12.22° C | 75% | 1019.6 hPa | 0 mm | - | 5 W/m² | - |
* Rain latest hour (hover to see other rain measurements)
** Current wind speed in m/s (hover to see current wind gust speed)